QPF
0.06 0.06 0.05 0.06 0.05 0.05 0.05 0.03 0.02 0.03 0.04 0.03 0.02 0.02 0.01 0.01 0.02 0.03 0.05 0.06 0.06 0.08 0.09 0.09 0.08 0.06 0.05 0.03 0.03 0.03 0.03 0.03 0.04 0.03 0.03 0.03 0.03 0.04 0.04 0.04 0.03 0.02 0.01
0.05 0.09 0.07 0.06 0.04 0.03 0.03 0.03 0.02 0.02 0.03 0.04 0.03 0.02 0.02 0.02 0.01 0.02 0.03 0.05 0.07 0.08 0.11 0.11 0.10 0.09 0.06 0.04 0.03 0.03 0.03 0.03 0.03 0.03 0.03 0.03 0.03 0.04 0.04 0.04 0.04 0.04 0.03
0.04 0.08 0.11 0.07 0.05 0.03 0.02 0.02 0.02 0.02 0.03 0.03 0.04 0.03 0.03 0.02 0.02 0.01 0.01 0.02 0.04 0.06 0.10 0.13 0.13 0.12 0.09 0.05 0.04 0.03 0.03 0.03 0.03 0.03 0.03 0.04 0.03 0.03 0.03 0.04 0.04 0.04 0.03
0.06 0.05 0.11 0.11 0.05 0.03 0.02 0.02 0.01 0.01 0.02 0.03 0.03 0.03 0.03 0.03 0.03 0.02 0.02 0.02 0.03 0.04 0.07 0.10 0.10 0.09 0.07 0.06 0.04 0.04 0.04 0.04 0.03 0.03 0.04 0.03 0.03 0.02 0.02 0.03 0.04 0.04 0.05
0.07 0.06 0.09 0.15 0.10 0.04 0.02 0.02 0.02 0.01 0.01 0.02 0.02 0.03 0.03 0.03 0.04 0.04 0.04 0.03 0.03 0.03 0.04 0.05 0.07 0.06 0.06 0.06 0.05 0.05 0.04 0.04 0.04 0.04 0.04 0.03 0.03 0.03 0.04 0.04 0.05 0.05 0.06
0.07 0.07 0.08 0.13 0.17 0.09 0.04 0.03 0.02 0.03 0.03 0.02 0.03 0.04 0.04 0.04 0.05 0.05 0.04 0.04 0.03 0.03 0.03 0.03 0.04 0.04 0.04 0.04 0.05 0.05 0.05 0.05 0.05 0.04 0.04 0.04 0.05 0.05 0.04 0.05 0.05 0.05 0.04
0.07 0.08 0.08 0.11 0.17 0.15 0.07 0.04 0.03 0.03 0.03 0.03 0.04 0.05 0.06 0.05 0.06 0.06 0.05 0.04 0.04 0.04 0.03 0.03 0.03 0.03 0.03 0.03 0.04 0.05 0.06 0.06 0.06 0.05 0.05 0.05 0.05 0.04 0.04 0.04 0.04 0.03 0.03
0.05 0.05 0.05 0.08 0.12 0.13 0.10 0.07 0.05 0.03 0.03 0.04 0.04 0.06 0.07 0.07 0.07 0.07 0.05 0.04 0.04 0.04 0.03 0.03 0.03 0.02 0.02 0.03 0.04 0.05 0.05 0.05 0.05 0.05 0.05 0.04 0.04 0.04 0.03 0.03 0.03 0.03 0.03
0.04 0.04 0.04 0.04 0.08 0.11 0.10 0.07 0.07 0.05 0.05 0.04 0.05 0.06 0.07 0.07 0.05 0.06 0.06 0.04 0.03 0.03 0.03 0.03 0.04 0.03 0.02 0.03 0.03 0.04 0.04 0.04 0.04 0.05 0.05 0.04 0.04 0.04 0.04 0.04 0.03 0.03 0.02
0.03 0.03 0.03 0.04 0.04 0.08 0.09 0.07 0.07 0.07 0.06 0.05 0.06 0.06 0.06 0.05 0.05 0.05 0.06 0.06 0.06 0.04 0.03 0.03 0.03 0.03 0.02 0.03 0.03 0.04 0.04 0.03 0.03 0.04 0.04 0.05 0.04 0.04 0.04 0.04 0.03 0.02 0.02
0.02 0.03 0.03 0.03 0.04 0.05 0.07 0.08 0.07 0.06 0.07 0.06 0.05 0.06 0.06 0.05 0.05 0.05 0.05 0.06 0.07 0.06 0.03 0.03 0.02 0.02 0.02 0.03 0.03 0.05 0.04 0.04 0.03 0.04 0.04 0.05 0.05 0.05 0.05 0.05 0.03 0.03 0.02
0.02 0.02 0.02 0.02 0.02 0.04 0.05 0.07 0.07 0.06 0.05 0.05 0.05 0.05 0.05 0.05 0.05 0.05 0.04 0.05 0.05 0.05 0.04 0.03 0.03 0.03 0.04 0.03 0.04 0.05 0.06 0.05 0.04 0.04 0.04 0.05 0.05 0.06 0.07 0.05 0.04 0.03 0.03
0.01 0.02 0.01 0.01 0.01 0.02 0.03 0.05 0.06 0.06 0.06 0.05 0.04 0.05 0.06 0.05 0.04 0.04 0.04 0.05 0.06 0.04 0.03 0.03 0.03 0.05 0.07 0.05 0.05 0.05 0.05 0.07 0.05 0.05 0.05 0.04 0.05 0.07 0.09 0.06 0.04 0.03 0.02
0.01 0.02 0.02 0.01 0.01 0.01 0.02 0.03 0.05 0.06 0.05 0.04 0.04 0.04 0.05 0.06 0.05 0.04 0.04 0.05 0.06 0.05 0.04 0.03 0.03 0.04 0.08 0.07 0.04 0.05 0.05 0.07 0.09 0.07 0.05 0.05 0.06 0.08 0.09 0.07 0.05 0.03 0.02
0.01 0.01 0.02 0.01 0.01 0.01 0.01 0.02 0.03 0.04 0.04 0.04 0.05 0.05 0.05 0.06 0.05 0.04 0.04 0.04 0.04 0.05 0.05 0.03 0.03 0.03 0.04 0.07 0.05 0.04 0.04 0.04 0.07 0.08 0.07 0.06 0.06 0.08 0.08 0.07 0.06 0.04 0.02
0.02 0.02 0.02 0.01 0.01 0.01 0.02 0.02 0.03 0.03 0.04 0.05 0.05 0.06 0.06 0.07 0.07 0.05 0.05 0.06 0.06 0.05 0.03 0.02 0.03 0.03 0.03 0.04 0.05 0.04 0.04 0.04 0.04 0.06 0.06 0.06 0.06 0.08 0.09 0.08 0.07 0.05 0.03
0.03 0.02 0.01 0.01 0.01 0.02 0.02 0.03 0.03 0.04 0.04 0.04 0.05 0.06 0.07 0.08 0.09 0.08 0.07 0.06 0.06 0.06 0.05 0.04 0.03 0.04 0.04 0.04 0.04 0.04 0.04 0.04 0.04 0.05 0.05 0.06 0.07 0.07 0.08 0.10 0.08 0.06 0.03
0.02 0.02 0.02 0.01 0.02 0.02 0.02 0.03 0.04 0.04 0.04 0.04 0.05 0.06 0.07 0.09 0.08 0.07 0.06 0.05 0.04 0.04 0.04 0.04 0.04 0.03 0.04 0.04 0.04 0.05 0.05 0.05 0.05 0.04 0.04 0.05 0.07 0.07 0.07 0.09 0.10 0.08 0.05
0.02 0.03 0.03 0.02 0.02 0.03 0.03 0.03 0.03 0.04 0.04 0.04 0.04 0.05 0.06 0.07 0.07 0.07 0.06 0.05 0.04 0.04 0.03 0.02 0.02 0.02 0.03 0.04 0.05 0.04 0.04 0.06 0.06 0.05 0.04 0.05 0.06 0.07 0.07 0.09 0.11 0.11 0.07
0.01 0.02 0.03 0.03 0.02 0.03 0.02 0.03 0.03 0.03 0.03 0.03 0.03 0.03 0.04 0.04 0.05 0.06 0.06 0.06 0.05 0.05 0.04 0.03 0.03 0.03 0.02 0.03 0.05 0.05 0.05 0.06 0.07 0.06 0.04 0.04 0.05 0.07 0.07 0.07 0.08 0.11 0.10
0.01 0.01 0.01 0.02 0.03 0.03 0.04 0.04 0.03 0.03 0.02 0.02 0.02 0.02 0.03 0.04 0.04 0.05 0.05 0.05 0.04 0.04 0.05 0.04 0.03 0.03 0.03 0.04 0.05 0.06 0.07 0.06 0.07 0.07 0.06 0.05 0.05 0.05 0.06 0.07 0.08 0.10 0.11
0.02 0.01 0.01 0.01 0.02 0.04 0.05 0.05 0.04 0.03 0.02 0.02 0.02 0.03 0.04 0.04 0.05 0.05 0.05 0.04 0.04 0.04 0.05 0.04 0.03 0.03 0.03 0.04 0.05 0.06 0.06 0.06 0.06 0.07 0.07 0.06 0.05 0.06 0.06 0.06 0.07 0.08 0.09
0.03 0.03 0.02 0.02 0.02 0.03 0.05 0.05 0.05 0.03 0.03 0.03 0.03 0.03 0.04 0.04 0.04 0.04 0.04 0.03 0.04 0.04 0.04 0.04 0.03 0.03 0.03 0.04 0.05 0.06 0.05 0.06 0.07 0.07 0.07 0.07 0.06 0.05 0.06 0.06 0.06 0.06 0.07
0.05 0.04 0.03 0.02 0.02 0.03 0.04 0.05 0.05 0.03 0.03 0.03 0.03 0.03 0.04 0.04 0.04 0.04 0.03 0.03 0.03 0.03 0.03 0.03 0.03 0.03 0.04 0.05 0.06 0.06 0.06 0.06 0.07 0.08 0.07 0.07 0.05 0.05 0.06 0.05 0.05 0.05 0.05
0.05 0.05 0.04 0.03 0.02 0.03 0.04 0.04 0.04 0.03 0.03 0.03 0.03 0.03 0.04 0.04 0.05 0.05 0.03 0.03 0.03 0.03 0.03 0.03 0.03 0.03 0.04 0.04 0.05 0.05 0.06 0.06 0.06 0.06 0.06 0.06 0.05 0.04 0.05 0.05 0.04 0.05 0.04
0.06 0.06 0.06 0.05 0.04 0.03 0.04 0.05 0.05 0.03 0.03 0.03 0.03 0.04 0.05 0.05 0.06 0.05 0.03 0.03 0.03 0.03 0.03 0.03 0.03 0.03 0.03 0.03 0.03 0.04 0.05 0.05 0.05 0.05 0.04 0.05 0.05 0.05 0.05 0.05 0.04 0.04 0.04
MSLP
1010.31 1009.94 1009.61 1009.41 1009.42 1009.71 1010.28 1011.10 1012.09 1013.15 1014.19 1015.10 1015.85 1016.43 1016.86 1017.19 1017.48 1017.79 1018.15 1018.55 1018.99 1019.43 1019.83 1020.18 1020.45 1020.65 1020.79 1020.88 1020.94 1020.97 1020.96 1020.92 1020.82 1020.66 1020.44 1020.18 1019.89 1019.58 1019.28 1018.97 1018.67 1018.35 1018.00
1010.31 1009.87 1009.47 1009.21 1009.18 1009.44 1010.01 1010.86 1011.92 1013.06 1014.19 1015.20 1016.03 1016.66 1017.12 1017.45 1017.72 1017.98 1018.28 1018.64 1019.04 1019.46 1019.87 1020.23 1020.52 1020.74 1020.90 1020.99 1021.04 1021.04 1021.01 1020.93 1020.81 1020.63 1020.41 1020.14 1019.85 1019.54 1019.24 1018.93 1018.62 1018.30 1017.95
1010.22 1009.74 1009.30 1009.01 1008.95 1009.20 1009.78 1010.65 1011.75 1012.96 1014.17 1015.26 1016.16 1016.86 1017.35 1017.69 1017.94 1018.16 1018.41 1018.72 1019.07 1019.46 1019.86 1020.22 1020.54 1020.78 1020.95 1021.05 1021.10 1021.10 1021.05 1020.95 1020.81 1020.62 1020.38 1020.11 1019.82 1019.51 1019.20 1018.88 1018.57 1018.24 1017.89
1010.05 1009.54 1009.09 1008.79 1008.74 1008.99 1009.58 1010.47 1011.60 1012.85 1014.11 1015.26 1016.23 1016.98 1017.52 1017.89 1018.14 1018.34 1018.55 1018.81 1019.12 1019.48 1019.85 1020.22 1020.54 1020.80 1020.99 1021.11 1021.16 1021.16 1021.10 1021.00 1020.84 1020.64 1020.40 1020.13 1019.83 1019.51 1019.19 1018.86 1018.53 1018.19 1017.84
1009.78 1009.28 1008.85 1008.57 1008.54 1008.82 1009.42 1010.32 1011.46 1012.73 1014.02 1015.21 1016.23 1017.04 1017.63 1018.04 1018.31 1018.52 1018.72 1018.95 1019.23 1019.55 1019.90 1020.26 1020.58 1020.85 1021.05 1021.19 1021.25 1021.26 1021.20 1021.09 1020.94 1020.74 1020.49 1020.22 1019.91 1019.58 1019.25 1018.90 1018.55 1018.19 1017.82
1009.42 1008.95 1008.56 1008.34 1008.36 1008.67 1009.29 1010.20 1011.33 1012.60 1013.90 1015.12 1016.18 1017.04 1017.70 1018.16 1018.48 1018.72 1018.93 1019.15 1019.42 1019.72 1020.05 1020.39 1020.71 1020.98 1021.19 1021.33 1021.41 1021.41 1021.36 1021.26 1021.10 1020.91 1020.67 1020.39 1020.09 1019.76 1019.41 1019.04 1018.66 1018.28 1017.88
1008.99 1008.56 1008.24 1008.09 1008.17 1008.54 1009.18 1010.10 1011.22 1012.48 1013.77 1015.00 1016.09 1017.01 1017.72 1018.26 1018.65 1018.94 1019.19 1019.44 1019.70 1020.00 1020.32 1020.65 1020.95 1021.22 1021.42 1021.56 1021.63 1021.64 1021.59 1021.48 1021.34 1021.15 1020.92 1020.66 1020.37 1020.04 1019.68 1019.30 1018.90 1018.48 1018.05
1008.51 1008.12 1007.88 1007.82 1007.98 1008.40 1009.08 1010.01 1011.12 1012.35 1013.63 1014.86 1015.98 1016.94 1017.72 1018.34 1018.81 1019.18 1019.48 1019.77 1020.07 1020.38 1020.70 1021.01 1021.31 1021.56 1021.75 1021.88 1021.93 1021.93 1021.87 1021.76 1021.62 1021.44 1021.24 1021.00 1020.72 1020.41 1020.06 1019.67 1019.25 1018.80 1018.33
1008.03 1007.69 1007.51 1007.53 1007.78 1008.26 1008.98 1009.92 1011.02 1012.24 1013.49 1014.71 1015.85 1016.84 1017.69 1018.38 1018.94 1019.38 1019.77 1020.12 1020.45 1020.79 1021.13 1021.45 1021.74 1021.97 1022.15 1022.25 1022.29 1022.26 1022.18 1022.06 1021.92 1021.76 1021.57 1021.36 1021.12 1020.83 1020.50 1020.12 1019.68 1019.21 1018.69
1007.59 1007.29 1007.18 1007.27 1007.58 1008.12 1008.87 1009.82 1010.91 1012.11 1013.34 1014.55 1015.68 1016.70 1017.59 1018.35 1018.98 1019.50 1019.97 1020.39 1020.78 1021.16 1021.53 1021.87 1022.17 1022.40 1022.56 1022.65 1022.66 1022.60 1022.50 1022.37 1022.21 1022.06 1021.89 1021.71 1021.50 1021.25 1020.94 1020.57 1020.14 1019.64 1019.09
1007.24 1006.96 1006.89 1007.03 1007.39 1007.97 1008.75 1009.70 1010.78 1011.95 1013.15 1014.34 1015.46 1016.48 1017.40 1018.19 1018.88 1019.48 1020.01 1020.50 1020.97 1021.42 1021.84 1022.22 1022.54 1022.79 1022.96 1023.03 1023.02 1022.94 1022.80 1022.65 1022.48 1022.32 1022.17 1022.01 1021.83 1021.61 1021.34 1020.99 1020.56 1020.05 1019.46
1006.98 1006.71 1006.65 1006.82 1007.20 1007.80 1008.59 1009.54 1010.61 1011.75 1012.91 1014.06 1015.15 1016.17 1017.08 1017.89 1018.62 1019.26 1019.86 1020.42 1020.97 1021.49 1021.98 1022.43 1022.81 1023.10 1023.28 1023.36 1023.34 1023.24 1023.09 1022.90 1022.72 1022.54 1022.39 1022.24 1022.09 1021.90 1021.65 1021.32 1020.90 1020.38 1019.77
1006.79 1006.52 1006.46 1006.62 1007.01 1007.62 1008.40 1009.34 1010.38 1011.49 1012.61 1013.72 1014.77 1015.74 1016.63 1017.44 1018.17 1018.85 1019.50 1020.13 1020.75 1021.36 1021.94 1022.47 1022.93 1023.29 1023.52 1023.63 1023.62 1023.52 1023.34 1023.14 1022.93 1022.74 1022.58 1022.43 1022.29 1022.11 1021.88 1021.57 1021.15 1020.62 1019.98
1006.62 1006.34 1006.27 1006.42 1006.81 1007.40 1008.18 1009.10 1010.11 1011.18 1012.26 1013.31 1014.31 1015.23 1016.08 1016.86 1017.59 1018.28 1018.97 1019.65 1020.35 1021.05 1021.73 1022.37 1022.92 1023.36 1023.67 1023.83 1023.86 1023.77 1023.60 1023.38 1023.15 1022.94 1022.76 1022.60 1022.45 1022.28 1022.05 1021.74 1021.32 1020.78 1020.13
1006.39 1006.11 1006.04 1006.18 1006.56 1007.15 1007.92 1008.82 1009.82 1010.86 1011.90 1012.90 1013.84 1014.70 1015.50 1016.24 1016.94 1017.63 1018.34 1019.07 1019.83 1020.62 1021.40 1022.14 1022.81 1023.35 1023.75 1023.99 1024.07 1024.01 1023.86 1023.64 1023.40 1023.17 1022.97 1022.79 1022.62 1022.44 1022.20 1021.89 1021.46 1020.91 1020.25
1006.05 1005.79 1005.73 1005.89 1006.28 1006.88 1007.66 1008.56 1009.55 1010.57 1011.57 1012.53 1013.41 1014.22 1014.97 1015.66 1016.33 1017.01 1017.72 1018.48 1019.30 1020.16 1021.03 1021.88 1022.65 1023.30 1023.79 1024.11 1024.27 1024.26 1024.14 1023.94 1023.70 1023.46 1023.24 1023.04 1022.85 1022.64 1022.39 1022.06 1021.62 1021.06 1020.39
1005.57 1005.35 1005.34 1005.55 1005.98 1006.62 1007.43 1008.36 1009.36 1010.37 1011.35 1012.28 1013.12 1013.89 1014.58 1015.23 1015.86 1016.52 1017.23 1018.01 1018.87 1019.78 1020.72 1021.65 1022.50 1023.25 1023.83 1024.24 1024.47 1024.53 1024.46 1024.29 1024.07 1023.83 1023.59 1023.37 1023.16 1022.92 1022.65 1022.29 1021.84 1021.27 1020.58
1004.96 1004.83 1004.90 1005.19 1005.71 1006.42 1007.29 1008.26 1009.29 1010.32 1011.31 1012.22 1013.03 1013.76 1014.41 1015.03 1015.63 1016.27 1016.97 1017.75 1018.62 1019.56 1020.54 1021.51 1022.43 1023.24 1023.90 1024.39 1024.69 1024.82 1024.81 1024.68 1024.49 1024.26 1024.02 1023.79 1023.55 1023.29 1022.99 1022.61 1022.13 1021.55 1020.86
1004.29 1004.27 1004.46 1004.88 1005.50 1006.32 1007.28 1008.33 1009.41 1010.47 1011.47 1012.37 1013.17 1013.88 1014.50 1015.09 1015.67 1016.28 1016.97 1017.74 1018.60 1019.54 1020.53 1021.52 1022.47 1023.32 1024.03 1024.57 1024.93 1025.13 1025.17 1025.10 1024.94 1024.74 1024.51 1024.27 1024.01 1023.73 1023.40 1022.99 1022.50 1021.90 1021.19
1003.64 1003.76 1004.10 1004.66 1005.43 1006.37 1007.44 1008.57 1009.71 1010.81 1011.83 1012.74 1013.54 1014.23 1014.85 1015.42 1015.98 1016.58 1017.24 1017.99 1018.83 1019.75 1020.71 1021.69 1022.63 1023.48 1024.21 1024.79 1025.19 1025.44 1025.53 1025.51 1025.39 1025.22 1025.01 1024.77 1024.50 1024.20 1023.85 1023.42 1022.90 1022.29 1021.58
1003.11 1003.39 1003.89 1004.61 1005.53 1006.60 1007.78 1008.99 1010.20 1011.33 1012.37 1013.29 1014.09 1014.79 1015.40 1015.97 1016.53 1017.12 1017.76 1018.49 1019.29 1020.17 1021.09 1022.02 1022.92 1023.74 1024.46 1025.03 1025.46 1025.74 1025.87 1025.90 1025.82 1025.68 1025.49 1025.26 1024.99 1024.68 1024.31 1023.86 1023.33 1022.70 1021.98
1002.77 1003.21 1003.88 1004.77 1005.83 1007.02 1008.29 1009.57 1010.82 1011.98 1013.03 1013.96 1014.77 1015.47 1016.10 1016.68 1017.25 1017.84 1018.47 1019.17 1019.94 1020.76 1021.62 1022.48 1023.31 1024.08 1024.75 1025.30 1025.73 1026.02 1026.18 1026.24 1026.20 1026.09 1025.93 1025.71 1025.45 1025.13 1024.75 1024.30 1023.76 1023.12 1022.40
1002.68 1003.28 1004.11 1005.13 1006.31 1007.60 1008.93 1010.25 1011.52 1012.69 1013.75 1014.68 1015.50 1016.22 1016.87 1017.47 1018.06 1018.67 1019.31 1019.99 1020.71 1021.48 1022.26 1023.04 1023.79 1024.48 1025.08 1025.59 1025.98 1026.27 1026.44 1026.52 1026.52 1026.44 1026.30 1026.11 1025.86 1025.55 1025.18 1024.72 1024.18 1023.55 1022.83
1002.85 1003.60 1004.56 1005.69 1006.95 1008.29 1009.66 1010.99 1012.25 1013.41 1014.46 1015.39 1016.22 1016.97 1017.65 1018.29 1018.92 1019.55 1020.20 1020.87 1021.56 1022.27 1022.97 1023.66 1024.31 1024.90 1025.43 1025.87 1026.22 1026.48 1026.65 1026.75 1026.76 1026.72 1026.61 1026.45 1026.23 1025.94 1025.59 1025.15 1024.62 1024.01 1023.30
1003.26 1004.14 1005.20 1006.41 1007.71 1009.07 1010.42 1011.74 1012.97 1014.11 1015.14 1016.07 1016.91 1017.69 1018.41 1019.10 1019.78 1020.45 1021.11 1021.77 1022.43 1023.08 1023.70 1024.29 1024.84 1025.33 1025.77 1026.13 1026.43 1026.66 1026.82 1026.92 1026.96 1026.94 1026.87 1026.74 1026.56 1026.31 1025.99 1025.59 1025.10 1024.51 1023.84
1003.87 1004.85 1005.98 1007.23 1008.54 1009.88 1011.20 1012.47 1013.66 1014.76 1015.77 1016.70 1017.56 1018.38 1019.15 1019.89 1020.62 1021.32 1022.00 1022.66 1023.28 1023.87 1024.42 1024.91 1025.36 1025.75 1026.09 1026.38 1026.61 1026.81 1026.95 1027.05 1027.11 1027.13 1027.10 1027.01 1026.88 1026.68 1026.41 1026.05 1025.61 1025.08 1024.46
Thickness
5633 5634 5635 5637 5639 5640 5641 5642 5643 5643 5644 5645 5646 5646 5647 5648 5649 5650 5651 5652 5652 5652 5653 5653 5653 5653 5652 5651 5651 5650 5649 5649 5648 5647 5646 5645 5644 5643 5641 5640 5640 5639 5638
5623 5624 5626 5627 5629 5630 5631 5632 5633 5634 5635 5636 5636 5637 5638 5639 5640 5641 5642 5643 5643 5644 5644 5644 5645 5644 5644 5643 5643 5642 5641 5641 5641 5639 5638 5638 5637 5636 5635 5634 5633 5632 5631
5614 5615 5616 5617 5619 5620 5621 5623 5624 5624 5625 5626 5626 5628 5629 5630 5631 5632 5633 5634 5634 5635 5635 5635 5635 5635 5635 5634 5635 5634 5633 5632 5632 5631 5631 5630 5630 5629 5628 5627 5627 5626 5625
5604 5606 5607 5608 5609 5610 5611 5612 5613 5614 5614 5615 5617 5619 5620 5621 5622 5623 5624 5624 5624 5625 5624 5624 5624 5624 5625 5624 5625 5625 5625 5624 5624 5623 5623 5623 5622 5622 5621 5620 5620 5619 5619
5595 5596 5597 5599 5600 5600 5600 5601 5602 5603 5604 5605 5607 5609 5611 5612 5613 5614 5615 5615 5615 5615 5615 5614 5614 5614 5614 5614 5614 5615 5616 5616 5616 5615 5615 5615 5615 5614 5614 5613 5613 5612 5611
5586 5587 5588 5589 5589 5590 5590 5590 5591 5592 5593 5595 5597 5599 5601 5602 5604 5605 5605 5605 5605 5605 5604 5604 5603 5603 5603 5603 5604 5606 5607 5608 5607 5607 5607 5607 5607 5607 5606 5606 5605 5605 5604
5577 5578 5579 5579 5579 5579 5579 5580 5581 5582 5582 5584 5585 5587 5590 5593 5594 5595 5595 5595 5595 5594 5594 5593 5593 5592 5593 5593 5594 5595 5597 5599 5599 5599 5599 5599 5598 5598 5598 5598 5598 5597 5596
5567 5569 5569 5570 5570 5570 5570 5570 5571 5571 5572 5573 5573 5574 5577 5580 5582 5584 5583 5583 5583 5583 5583 5583 5582 5582 5582 5583 5584 5585 5587 5588 5589 5590 5590 5590 5590 5591 5591 5591 5591 5590 5589
5558 5559 5560 5561 5561 5561 5561 5561 5561 5561 5561 5561 5562 5562 5563 5568 5569 5572 5572 5572 5572 5571 5571 5571 5571 5572 5572 5573 5574 5575 5576 5578 5579 5580 5581 5582 5582 5583 5583 5583 5583 5582 5581
5548 5550 5551 5552 5553 5553 5552 5552 5552 5552 5551 5551 5551 5552 5552 5554 5555 5560 5562 5561 5561 5561 5560 5561 5561 5562 5562 5563 5564 5565 5566 5568 5569 5570 5571 5573 5574 5575 5576 5575 5575 5574 5573
5538 5540 5541 5543 5544 5544 5544 5543 5543 5542 5542 5542 5541 5542 5543 5544 5544 5546 5551 5552 5551 5551 5550 5551 5552 5552 5553 5553 5554 5555 5556 5557 5558 5560 5561 5563 5564 5566 5567 5567 5567 5566 5565
5529 5531 5533 5534 5535 5536 5536 5535 5535 5534 5533 5534 5534 5534 5535 5535 5536 5536 5538 5540 5540 5542 5541 5542 5543 5543 5544 5545 5545 5546 5546 5547 5548 5550 5552 5554 5555 5556 5558 5558 5559 5558 5557
5520 5522 5524 5525 5526 5527 5527 5528 5527 5526 5525 5525 5526 5526 5527 5528 5528 5529 5529 5529 5529 5532 5533 5534 5534 5535 5536 5535 5535 5536 5536 5536 5539 5541 5543 5545 5546 5547 5548 5549 5549 5550 5549
5512 5513 5515 5516 5517 5518 5519 5520 5519 5519 5518 5518 5519 5518 5519 5519 5520 5521 5522 5520 5520 5522 5524 5525 5526 5527 5526 5526 5527 5526 5526 5527 5530 5532 5534 5536 5536 5538 5539 5539 5539 5540 5539
5504 5505 5506 5507 5508 5510 5511 5512 5512 5512 5511 5511 5511 5511 5512 5512 5512 5513 5514 5514 5513 5514 5515 5516 5516 5518 5517 5517 5518 5518 5518 5519 5521 5523 5525 5527 5527 5528 5529 5529 5530 5530 5529
5494 5495 5497 5498 5500 5502 5503 5503 5504 5505 5504 5504 5504 5505 5505 5505 5505 5506 5506 5506 5507 5507 5507 5507 5507 5508 5508 5508 5509 5510 5510 5511 5512 5514 5516 5517 5518 5519 5520 5520 5520 5521 5521
5486 5487 5488 5490 5492 5493 5494 5495 5497 5497 5497 5497 5497 5498 5499 5498 5497 5498 5498 5499 5499 5500 5500 5499 5498 5499 5499 5500 5501 5501 5502 5503 5504 5506 5507 5508 5509 5510 5511 5511 5512 5512 5512
5479 5480 5480 5482 5484 5485 5486 5488 5489 5490 5490 5490 5491 5491 5491 5491 5489 5489 5491 5491 5492 5493 5493 5492 5490 5490 5491 5492 5493 5494 5494 5495 5496 5497 5499 5500 5500 5501 5502 5503 5503 5504 5504
5473 5473 5473 5475 5476 5477 5479 5480 5481 5482 5482 5483 5483 5483 5483 5483 5482 5482 5483 5484 5484 5485 5484 5484 5482 5482 5482 5483 5484 5485 5486 5487 5487 5488 5489 5490 5491 5491 5493 5494 5495 5496 5496
5466 5466 5467 5467 5468 5469 5470 5471 5473 5473 5474 5474 5474 5474 5474 5475 5475 5476 5476 5476 5476 5476 5475 5475 5474 5474 5474 5475 5475 5475 5477 5478 5478 5480 5480 5480 5481 5483 5485 5485 5486 5487 5487
5460 5460 5459 5460 5460 5461 5463 5463 5465 5465 5465 5465 5465 5465 5466 5466 5467 5468 5469 5469 5469 5469 5468 5467 5466 5466 5465 5465 5465 5465 5466 5469 5469 5470 5470 5471 5473 5475 5476 5476 5476 5477 5478
5453 5452 5452 5452 5452 5453 5455 5457 5457 5456 5456 5456 5456 5457 5457 5457 5458 5459 5461 5462 5463 5462 5461 5459 5458 5458 5457 5456 5456 5457 5457 5460 5461 5462 5461 5463 5464 5465 5466 5467 5468 5469 5470
5445 5444 5444 5443 5443 5444 5446 5447 5448 5448 5447 5447 5448 5448 5448 5449 5449 5450 5452 5452 5452 5453 5454 5452 5451 5449 5449 5449 5448 5448 5449 5450 5450 5451 5452 5455 5456 5457 5458 5459 5460 5461 5461
5437 5436 5436 5436 5435 5436 5438 5438 5438 5438 5438 5438 5439 5439 5440 5440 5442 5443 5443 5442 5441 5442 5443 5443 5443 5442 5441 5441 5440 5440 5439 5439 5440 5441 5442 5445 5448 5449 5451 5451 5451 5452 5453
5428 5427 5427 5426 5426 5427 5429 5430 5430 5429 5429 5429 5430 5431 5431 5433 5435 5436 5435 5434 5433 5432 5432 5433 5433 5433 5432 5432 5432 5431 5431 5431 5431 5432 5433 5435 5437 5439 5442 5442 5443 5443 5445
5419 5419 5419 5418 5418 5418 5420 5421 5422 5422 5422 5422 5421 5422 5424 5425 5426 5427 5427 5425 5424 5423 5423 5423 5423 5422 5422 5422 5422 5422 5422 5422 5421 5422 5423 5425 5427 5427 5431 5434 5433 5435 5436